NEE-01 PEGASO

Last updated on Sat Aug 15 2026 00:03:44 GMT+0000 (Coordinated Universal Time)

1 39151U 13018B 26226.34137771 .00001184 00000+0 11705-3 0 9993 2 39151 98.1301 12.4491 0011812 338.3070 21.7647 14.93901157719386
UTC large
Height (km)
Speed (km/s)
/
Latitude / Longitude
Inclination (degrees)
Orbital Period (minutes)
Azimuth
Elevation
Range (km)
Doppler Factor

Next 0 passes for location: London (51.5072 / 0.1276)

No passes found over London.
NEE-01 PEGASO